Flag for France Weather past 2 weeks in Boulogne-Billancourt, France

Now
64 °F

Sunny.


Feels Like: 64 °F
Forecast: 63 / 82 °F
Wind: 3 mph from North

Location: Paris-Orly

Current Time: Sep 18, 2014 at 10:10:13 AM

Latest Report: Sep 18, 2014 at 9:30 AM


Visibility: 10 mi

Pressure: 29.77 "Hg

Humidity: 88%

Dew point: 61 °F

Location of Boulogne-BillancourtLocation

Historic Weather in Boulogne-Billancourt — Graph

°F

Boulogne-Billancourt temperature yesterday

Maximum temperature yesterday: 79 °F (at 4:00 PM)
Minimum temperature yesterday: 63 °F (at 4:00 AM)
Average temperature yesterday: 70 °F

Past Weeks' High & Low Weather Summary

 TemperatureHumidityPressure
High79 °F (Sep 7, 3:30 PM)100% (Sep 16, 7:30 AM)30.18 "Hg (Sep 16, 7:30 AM)
Low50 °F (Sep 11, 6:00 AM)36% (Sep 9, 5:00 PM)29.74 "Hg (Sep 17, 3:30 PM)
Average65 °F70%30.00 "Hg
* Reported Sep 3 8:00 AM — Sep 18 8:30 AM, Boulogne-Billancourt, Weather by CustomWeather, © 2014

Note: Actual official high and low records may vary slightly from our data, if they occured in-between our weather recording intervals... More about our weather records

Advertising

Boulogne-Billancourt weather history for previous 24 hours

 ConditionsComfort  
Time TempWeatherWind HumidityBarometerVisibility
8:30 AM
Sep 18
63 °FSunny.1 mph94%29.77 "Hg10 mi
8:00 AM61 °FClear.2 mph94%29.77 "Hg10 mi
7:30 AM63 °FClear.No wind88%29.74 "Hg10 mi
7:00 AM63 °FClear.No wind88%29.77 "Hg10 mi
6:30 AM63 °FClear.No wind94%29.77 "Hg10 mi
6:00 AM63 °FClear.1 mph94%29.77 "Hg10 mi
5:30 AM63 °FClear.2 mph94%29.77 "Hg10 mi
4:30 AM64 °FClear.3 mph88%29.77 "Hg10 mi
4:00 AM64 °FClear.2 mph83%29.74 "Hg10 mi
3:30 AM64 °FClear.2 mph83%29.77 "Hg10 mi
3:00 AM64 °FClear.No wind83%29.77 "Hg10 mi
2:30 AM66 °FClear.2 mph78%29.77 "Hg10 mi
2:00 AM66 °FPassing clouds.3 mph78%29.77 "HgN/A
1:30 AM66 °FClear.3 mph78%29.77 "Hg10 mi
1:00 AM66 °FClear.3 mph78%29.77 "Hg10 mi
12:30 AM68 °FClear.3 mph73%29.77 "Hg10 mi
12:00 AM68 °FClear.3 mph73%29.77 "Hg10 mi
11:30 PM
Sep 17
70 °FClear.8 mph69%29.77 "Hg10 mi
11:00 PM70 °FPartly cloudy.5 mph73%29.77 "HgN/A
10:30 PM70 °FPassing clouds.No wind73%29.77 "HgN/A
10:00 PM70 °FClear.No wind73%29.77 "Hg10 mi
9:30 PM72 °FClear.3 mph69%29.77 "Hg10 mi
9:00 PM72 °FClear.5 mph69%29.77 "Hg10 mi
8:30 PM73 °FSunny.3 mph65%29.74 "Hg10 mi
8:00 PM73 °FSunny.2 mph65%29.74 "Hg10 mi
7:30 PM75 °FSunny.3 mph61%29.74 "Hg10 mi
7:00 PM75 °FSunny.5 mph61%29.74 "Hg10 mi
6:30 PM77 °FSunny.5 mph57%29.74 "Hg10 mi
6:00 PM77 °FSunny.7 mph57%29.74 "Hg10 mi
5:30 PM77 °FPassing clouds.7 mph57%29.74 "HgN/A
5:00 PM77 °FPartly sunny.8 mph54%29.74 "HgN/A
4:30 PM79 °FSunny.2 mph54%29.74 "Hg10 mi
4:00 PM79 °FPassing clouds.3 mph51%29.74 "HgN/A
3:30 PM77 °FPartly sunny.6 mph54%29.74 "HgN/A
3:00 PM77 °FPartly sunny.7 mph57%29.77 "HgN/A
2:30 PM77 °FPartly sunny.6 mph57%29.77 "HgN/A
2:00 PM77 °FPassing clouds.6 mph61%29.77 "HgN/A
1:30 PM73 °FSunny.7 mph65%29.77 "Hg10 mi
1:00 PM73 °FPassing clouds.7 mph61%29.77 "HgN/A
12:30 PM72 °FPassing clouds.6 mph69%29.77 "HgN/A
12:00 PM70 °FSunny.6 mph69%29.80 "Hg10 mi
11:30 AM68 °FSunny.7 mph73%29.80 "Hg10 mi
11:00 AM68 °FPassing clouds.7 mph73%29.80 "HgN/A
10:30 AM66 °FSunny.6 mph78%29.80 "Hg10 mi
10:00 AM66 °FPassing clouds.6 mph78%29.80 "HgN/A
Weather by CustomWeather, © 2014

See weather overviewHow to use our weather pages